Retour au catalogue

STARLINK-4269

ActifCommunicationsVLEO
NORAD 52992·PAYLOAD·🇺🇸 United States

Lancé Jul 7, 2022 depuis Cape Canaveral Space Force Station

Loading…

Prochains Passages (prochaines 24 heures)

TLE

FraisSource: CelesTrak SupGP

Époque: Sep 14, 2026, 21:20 UTC

1 52992C 22076G   26257.88937500 -.00025359  00000+0 -81564-3 0  2575
2 52992  53.1573 323.8923 0001076  91.2978 342.3275 15.31709200    18

Suivez STARLINK-4269 en temps réel avec AllMySat

Download on the App Store